Location: Dallas
(32.7833°N, 96.8000°W)
Time: 01:24:29
(UTC-05:00)

Envisat - Pass Details

Date: 08 July 2022
Orbit: 763 x 765 km, 98.2° (Epoch: 11 August)

Event Time Altitude Azimuth Distance (km) Brightness Sun altitude
Rises 04:49:15 0° 32° (NNE) 3,232 7.7 -17.5°
Reaches altitude 10° 04:52:16 10° 51° (NE) 2,301 6.8 -17.0°
Maximum altitude 04:55:44 18° 94° (E) 1,785 5.5 -16.5°
Drops below altitude 10° 04:59:11 10° 138° (SE) 2,291 5.5 -15.9°
Sets 05:02:09 0° 156° (SSE) 3,212 6.1 -15.5°
